Content
SEND FEEDBACK

Daily
Averages
Monthly
Summary
United States of America

SAINT JOHN, CALIFORNIA


Home > North America > United States > California
Elevation: 150 feet     Latitude: 39 42N     Longitude: 122 00W

WEATHER
 
SELECT A DAY
Number of Records: 141,859;   Date Range: 1/1/95 - 8/30/14
 
SHARE

PRINT THIS DATA

[ ← Previous Day ]
WEATHER ALMANAC - JANUARY 3, 2013
[ Next Day → ]
[ °C ]   °F
Weather ElementAverageHighLow
Temperature36.3 °F50 °F (2:51 pm)28.4 °F (5:15 am)
Dewpoint29.4 °F33.8 °F (10:55 am)24.8 °F (7:50 am)
Humidity76.8 %93 % (5:15 am)47 % (2:51 pm)
Barometer30.25 in30.30 in (10:55 pm)30.20 in (12:35 am)
Wind Speed2.7 mph6.9 mph (5:55 am)
Weather ElementAverage
Visibility22.2 mi
Wind DirectionE (90.2 °)

Weather ElementTotal
Precipitation---
Heating Degree Days25.8 (Base 65)
Averaged from 46 records on January 3, 2013
WEATHER CONDITIONS BREAKOUT
WIND DIRECTION BREAKOUT
WEATHER BY HOUR - JANUARY 3, 2013
[ °C ]   °F
Local TimeTemperatureDewpointHumidityBarometerVisibilityWind DirectionWind SpeedGust SpeedPrecipitationEventsConditions
12:35 AM33.8 °F28.4 °F81 %30.20 in10.0 miCalmClear
12:55 AM32.0 °F28.4 °F87 %30.20 in10.0 miCalmClear
1:15 AM32.0 °F28.4 °F87 %30.21 in10.0 miCalmClear
1:35 AM32.0 °F26.6 °F80 %30.21 in10.0 miCalmClear
1:55 AM32.0 °F26.6 °F80 %30.21 in10.0 miCalmClear
2:15 AM32.0 °F26.6 °F80 %30.22 in10.0 miCalmClear
2:35 AM32.0 °F26.6 °F80 %30.22 in10.0 miCalmClear
2:55 AM32.0 °F26.6 °F80 %30.22 in10.0 miCalmClear
3:15 AM32.0 °F26.6 °F80 %30.22 in10.0 miCalmClear
3:35 AM32.0 °F26.6 °F80 %30.22 in10.0 miENE (60°)3.5 mphClear
3:55 AM32.0 °F26.6 °F80 %30.21 in10.0 miCalmClear
4:15 AM33.8 °F26.6 °F75 %30.20 in10.0 miENE (70°)5.8 mphClear
4:35 AM32.0 °F26.6 °F80 %30.20 in10.0 miCalmClear
4:55 AM30.2 °F26.6 °F86 %30.20 in10.0 miWest (260°)5.8 mphClear
5:15 AM28.4 °F26.6 °F93 %30.20 in10.0 miNW (310°)4.6 mphClear
5:35 AM32.0 °F26.6 °F80 %30.21 in10.0 miNNW (340°)5.8 mphClear
5:55 AM32.0 °F26.6 °F80 %30.22 in10.0 miNNW (330°)6.9 mphClear
6:15 AM32.0 °F26.6 °F80 %30.22 in10.0 miNE (40°)3.5 mphClear
6:35 AM30.2 °F26.6 °F86 %30.22 in10.0 miCalmClear
6:50 AM28.4 °F26.6 °F93 %30.23 in10.0 miNW (310°)4.6 mphScattered Clouds
7:50 AM30.2 °F24.8 °F80 %30.24 in80.0 miWNW (300°)4.6 mphScattered Clouds
8:58 AM32.0 °F28.4 °F87 %30.27 in80.0 miWNW (300°)5.8 mphScattered Clouds
9:57 AM39.2 °F32.0 °F75 %30.27 in80.0 miWNW (300°)4.6 mphMostly Cloudy
10:55 AM41.0 °F33.8 °F76 %30.28 in80.0 miWNW (300°)5.8 mphMostly Cloudy
12:49 PM48.2 °F32.0 °F54 %30.25 in80.0 miNW (310°)6.9 mphMostly Cloudy
1:50 PM48.2 °F30.2 °F50 %30.24 in80.0 miNW (310°)6.9 mphMostly Cloudy
2:51 PM50.0 °F30.2 °F47 %30.24 in80.0 miCalmMostly Cloudy
3:54 PM50.0 °F32.0 °F50 %30.26 in80.0 miWNW (300°)5.8 mphMostly Cloudy
5:59 PM42.8 °F32.0 °F66 %30.26 in10.0 miNNE (30°)6.9 mphScattered Clouds
6:47 PM41.0 °F32.0 °F70 %30.27 in10.0 miNE (40°)6.9 mphScattered Clouds
6:55 PM41.0 °F32.0 °F70 %30.27 in10.0 miNE (50°)4.6 mphClear
7:15 PM41.0 °F32.0 °F70 %30.27 in10.0 miNE (50°)4.6 mphClear
7:35 PM41.0 °F32.0 °F70 %30.27 in10.0 miNE (50°)6.9 mphClear
7:55 PM41.0 °F32.0 °F70 %30.27 in10.0 miNE (40°)5.8 mphClear
8:15 PM41.0 °F32.0 °F70 %30.28 in10.0 miNE (50°)5.8 mphClear
8:35 PM39.2 °F32.0 °F75 %30.29 in10.0 miCalmClear
8:55 PM37.4 °F32.0 °F81 %30.29 in10.0 miCalmClear
9:15 PM39.2 °F32.0 °F75 %30.28 in10.0 miCalmClear
9:35 PM37.4 °F32.0 °F81 %30.28 in10.0 miCalmClear
9:55 PM37.4 °F32.0 °F81 %30.29 in10.0 miCalmClear
10:15 PM35.6 °F32.0 °F87 %30.29 in10.0 miCalmClear
10:35 PM37.4 °F32.0 °F81 %30.29 in10.0 miCalmClear
10:55 PM35.6 °F32.0 °F87 %30.30 in10.0 miCalmClear
11:15 PM37.4 °F32.0 °F81 %30.30 in10.0 miCalmClear
11:35 PM37.4 °F30.2 °F75 %30.29 in10.0 miCalmClear
11:55 PM37.4 °F30.2 °F75 %30.29 in10.0 miCalmClear
Hourly data recorded from KCIC, located miles away from Saint John, California







STORIES FROM OUR PARTNERS